"SCET";"TARGET";"ELECTRON_DENSITY";"ERROR_FLAG";"ELECTRON_DENSITY_ERROR";"FREQ_FCE";"MEASURED_VALUE";"MEASURED_ITEM";"FREQ_PLASMA";"FREQ_UPPER_HYBRID";"FREQ_R_EQUALS_ZERO";"FREQ_L_EQUALS_ZERO";"ORBIT_NUMBER";"SATURN_RADIUS";"SATURN_IAU_LONGITUDE";"SATURN_SLS4_S_LONGITUDE";"SATURN_SLS4_N_LONGITUDE";"SATURN_SLS5_S_LONGITUDE";"SATURN_SLS5_N_LONGITUDE";"SATURN_LOCAL_TIME";"SATURN_KRONOGRAPHIC_LATITUDE";"SATURN_MAGNETIC_LATITUDE";"SATURN_L";"SATURN_L_OFFSET";"SATURN_SOLAR_EQUATORIAL_X";"SATURN_SOLAR_EQUATORIAL_Y";"SATURN_SOLAR_EQUATORIAL_Z";"SATURN_ALTITUDE";"ENCELADUS_ENCOUNTER_NUMBER";"ENCELADUS_RADIUS";"ENCELADUS_COROTATIONAL_X";"ENCELADUS_COROTATIONAL_Y";"ENCELADUS_COROTATIONAL_Z";"ENCELADUS_TRUE_ANOMALY";"ENCELADUS_PERIAPSIS_TIME";"JUPITER_RADIUS";"JUPITER_SYSTEMIII_LONGITUDE";"JUPITER_MAGNETIC_LATITUDE";"JUPITER_MAGNETIC_LOCAL_TIME";"JUPITER_L";"IO_PHASE";"EARTH_RADIUS";"EARTH_MAGNETIC_LATITUDE";"EARTH_LOCAL_TIME";"EARTH_L"
"[UTC]";"[0=Saturn, 1=Enceladus, 2=Jupiter, 3=Earth]";"[cm-3]";"[0=automated, 1=manual]";"[normalized density error]";"[Hz]";"[Hz]";"[0=upper hybrid frequency, 1=plasma frequency cutoff]";"[Hz]";"[Hz]";"[Hz]";"[Hz}";"[0, A, B, C, 3, 4, ... , 292, 293]";"[Rs where 1Rs=60268km]";"[degrees]";"[degrees]";"[degrees]";"[degrees]";"[degrees]";"[hours]";"[degrees]";"[degrees where offset=2293km north]";"[Rs where 1Rs=60268km]";"[Rs where 1Rs=60268km and offset=2293km north]";"[Rs where 1Rs=60268km]";"[Rs where 1Rs=60268km]";"[Rs where 1Rs=60268km]";"[km where ellipsoid a,b=60268km and c=54364km]";"[E0, E1, E2, ... , E21, E22]";"[Renc where 1Renc=252.1km]";"[Renc where 1Renc=252.1km]";"[Renc where 1Renc=252.1km]";"[Renc where 1Renc=252.1km]";"[degrees]";"[UTC]";"[Rj where 1Rj=71492km]";"[degrees]";"[degrees using JRM09 model]";"[hours using JRM09 model]";"[Rj where 1Rj=71492km]";"[degrees]";"[Re where 1Re=6378.1366km]";"[degrees]";"[hours]";"[Re where 1Re=6378.1366km]"
2006-10-28T01:29:21.579Z;0;8.0290e+00;0;     0.137;  5815.124;  26100.773; 0;  25444.738;  26100.773;  28517.885;  22702.760; 31;   4.725;   8.399; 288.638; 358.443; 303.272;  11.477;  13.514; -14.101; -14.547;   5.023;   4.730;   4.227;   1.770;  -1.151;;;;;;;;;;;;;;;;;;
2006-10-28T01:29:29.579Z;0;7.9350e+00;0;     0.122;  5815.124;  25955.852; 0;  25296.059;  25955.852;  28370.172;  22555.047; 31;   4.725;   8.460; 288.697; 358.504; 303.332;  11.537;  13.515; -14.081; -14.528;   5.023;   4.730;   4.227;   1.771;  -1.149;;;;;;;;;;;;;;;;;;
2006-10-28T01:29:37.579Z;0;7.9490e+00;0;     0.129;  5815.124;  25977.908; 0;  25318.689;  25977.908;  28392.654;  22577.531; 31;   4.725;   8.520; 288.756; 358.565; 303.393;  11.596;  13.516; -14.062; -14.508;   5.022;   4.730;   4.227;   1.772;  -1.148;;;;;;;;;;;;;;;;;;
2006-10-28T01:29:53.579Z;0;7.8050e+00;0;     0.118;  5815.124;  25753.256; 0;  25088.135;  25753.256;  28163.619;  22348.496; 31;   4.726;   8.640; 288.874; 358.687; 303.514;  11.715;  13.518; -14.023; -14.469;   5.021;   4.731;   4.228;   1.775;  -1.145;;;;;;;;;;;;;;;;;;
2006-10-28T01:30:01.579Z;0;7.7100e+00;0;     0.126;  5797.848;  25599.309; 0;  24934.104;  25599.309;  28000.982;  22203.135; 31;   4.726;   8.701; 288.934; 358.747; 303.574;  11.774;  13.519; -14.003; -14.450;   5.020;   4.731;   4.228;   1.776;  -1.143;;;;;;;;;;;;;;;;;;
2006-10-28T01:30:09.579Z;0;7.6340e+00;0;     0.120;  5797.848;  25479.592; 0;  24811.178;  25479.592;  27878.883;  22081.035; 31;   4.726;   8.761; 288.993; 358.808; 303.633;  11.835;  13.520; -13.984; -14.430;   5.019;   4.731;   4.228;   1.778;  -1.142;;;;;;;;;;;;;;;;;;
2006-10-28T01:30:17.579Z;0;7.7210e+00;0;     0.125;  5797.848;  25617.697; 0;  24952.982;  25617.697;  28019.734;  22221.887; 31;   4.727;   8.821; 289.052; 358.869; 303.692;  11.895;  13.521; -13.964; -14.411;   5.019;   4.731;   4.228;   1.779;  -1.140;;;;;;;;;;;;;;;;;;
2006-10-28T01:30:25.579Z;0;7.6580e+00;0;     0.128;  5797.848;  25518.557; 0;  24851.191;  25518.557;  27918.625;  22120.777; 31;   4.727;   8.882; 289.111; 358.930; 303.752;  11.956;  13.522; -13.945; -14.391;   5.018;   4.731;   4.228;   1.780;  -1.139;;;;;;;;;;;;;;;;;;
2006-10-28T01:30:41.579Z;0;7.7190e+00;0;     0.121;  5797.848;  25613.521; 0;  24948.695;  25613.521;  28015.477;  22217.629; 31;   4.727;   9.002; 289.230; 359.052; 303.870;  12.077;  13.524; -13.906; -14.352;   5.017;   4.732;   4.228;   1.783;  -1.136;;;;;;;;;;;;;;;;;;
2006-10-28T01:30:49.578Z;0;7.9260e+00;0;     0.181;  5797.848;  25937.211; 0;  25280.898;  25937.211;  28345.488;  22547.641; 31;   4.727;   9.063; 289.289; 359.112; 303.929;  12.138;  13.525; -13.886; -14.333;   5.016;   4.732;   4.228;   1.784;  -1.134;;;;;;;;;;;;;;;;;;
2006-10-28T01:30:57.578Z;0;7.8600e+00;0;     0.141;  5797.848;  25835.723; 0;  25176.766;  25835.723;  28242.035;  22444.188; 31;   4.728;   9.123; 289.348; 359.173; 303.988;  12.199;  13.526; -13.867; -14.313;   5.016;   4.732;   4.228;   1.786;  -1.133;;;;;;;;;;;;;;;;;;
2006-10-28T01:31:05.578Z;0;7.8890e+00;0;     0.135;  5780.292;  25876.584; 0;  25222.725;  25876.584;  28277.914;  22497.623; 31;   4.728;   9.183; 289.407; 359.234; 304.048;  12.260;  13.527; -13.847; -14.294;   5.015;   4.732;   4.229;   1.787;  -1.131;;;;;;;;;;;;;;;;;;
2006-10-28T01:31:13.578Z;0;8.1640e+00;0;     0.159;  5780.292;  26301.639; 0;  25658.613;  26301.639;  28711.018;  22930.725; 31;   4.728;   9.244; 289.466; 359.295; 304.107;  12.320;  13.528; -13.828; -14.274;   5.015;   4.733;   4.229;   1.788;  -1.130;;;;;;;;;;;;;;;;;;
2006-10-28T01:31:29.578Z;0;8.1250e+00;0;     0.151;  5780.292;  26241.752; 0;  25597.223;  26241.752;  28650.012;  22869.721; 31;   4.729;   9.364; 289.585; 359.417; 304.225;  12.442;  13.530; -13.789; -14.235;   5.013;   4.733;   4.229;   1.791;  -1.127;;;;;;;;;;;;;;;;;;
2006-10-28T01:31:37.578Z;0;7.7160e+00;0;     0.109;  5780.292;  25605.740; 0;  24944.781;  25605.740;  28001.799;  22221.506; 31;   4.729;   9.425; 289.644; 359.478; 304.284;  12.503;  13.531; -13.769; -14.216;   5.013;   4.733;   4.229;   1.792;  -1.125;;;;;;;;;;;;;;;;;;
2006-10-28T01:31:45.578Z;0;7.7360e+00;0;     0.127;  5780.292;  25636.268; 0;  24976.117;  25636.268;  28032.926;  22252.635; 31;   4.729;   9.485; 289.703; 359.538; 304.343;  12.564;  13.532; -13.750; -14.196;   5.012;   4.733;   4.229;   1.793;  -1.124;;;;;;;;;;;;;;;;;;
2006-10-28T01:31:53.578Z;0;7.9410e+00;0;     0.132;  5780.292;  25957.822; 0;  25306.062;  25957.822;  28360.711;  22580.420; 31;   4.729;   9.546; 289.763; 359.599; 304.402;  12.625;  13.533; -13.730; -14.177;   5.012;   4.734;   4.229;   1.795;  -1.122;;;;;;;;;;;;;;;;;;
2006-10-28T01:32:01.578Z;0;7.8760e+00;0;     0.129;  5762.680;  25852.566; 0;  25202.117;  25852.566;  28247.633;  22484.953; 31;   4.729;   9.606; 289.822; 359.660; 304.461;  12.686;  13.534; -13.711; -14.157;   5.011;   4.734;   4.229;   1.796;  -1.121;;;;;;;;;;;;;;;;;;
2006-10-28T01:32:17.578Z;0;7.9290e+00;0;     0.124;  5762.680;  25935.332; 0;  25287.012;  25935.332;  28331.980;  22569.301; 31;   4.730;   9.727; 289.940; 359.782; 304.579;  12.807;  13.536; -13.672; -14.118;   5.010;   4.734;   4.229;   1.799;  -1.118;;;;;;;;;;;;;;;;;;
2006-10-28T01:32:25.578Z;0;7.9530e+00;0;     0.118;  5762.680;  25971.830; 0;  25324.443;  25971.830;  28369.172;  22606.492; 31;   4.730;   9.787; 290.000; 359.843; 304.638;  12.868;  13.537; -13.652; -14.099;   5.009;   4.734;   4.229;   1.800;  -1.116;;;;;;;;;;;;;;;;;;
2006-10-28T01:32:33.578Z;0;7.8810e+00;0;     0.114;  5762.680;  25860.174; 0;  25209.920;  25860.174;  28255.387;  22492.707; 31;   4.730;   9.848; 290.059; 359.904; 304.697;  12.929;  13.538; -13.633; -14.079;   5.009;   4.735;   4.230;   1.801;  -1.115;;;;;;;;;;;;;;;;;;
2006-10-28T01:32:41.578Z;0;7.8780e+00;0;     0.122;  5762.680;  25855.729; 0;  25205.361;  25855.729;  28250.855;  22488.176; 31;   4.731;   9.908; 290.118; 359.965; 304.756;  12.990;  13.539; -13.613; -14.060;   5.008;   4.735;   4.230;   1.803;  -1.113;;;;;;;;;;;;;;;;;;
2006-10-28T01:32:49.578Z;0;7.8860e+00;0;     0.113;  5762.680;  25867.689; 0;  25217.631;  25867.689;  28263.047;  22500.365; 31;   4.731;   9.968; 290.177;   0.026; 304.815;  13.052;  13.540; -13.594; -14.041;   5.007;   4.735;   4.230;   1.804;  -1.112;;;;;;;;;;;;;;;;;;
2006-10-28T01:33:05.578Z;0;7.9220e+00;0;     0.115;  5744.984;  25919.193; 0;  25274.488;  25919.193;  28309.688;  22564.705; 31;   4.731;  10.089; 290.296;   0.147; 304.933;  13.174;  13.542; -13.555; -14.002;   5.006;   4.735;   4.230;   1.807;  -1.109;;;;;;;;;;;;;;;;;;
2006-10-28T01:33:13.578Z;0;7.9420e+00;0;     0.118;  5744.984;  25950.857; 0;  25306.959;  25950.857;  28341.951;  22596.967; 31;   4.731;  10.150; 290.355;   0.208; 304.992;  13.235;  13.543; -13.535; -13.982;   5.006;   4.736;   4.230;   1.808;  -1.107;;;;;;;;;;;;;;;;;;
2006-10-28T01:33:21.577Z;0;7.9850e+00;0;     0.120;  5744.984;  26018.393; 0;  25376.207;  26018.393;  28410.760;  22665.775; 31;   4.732;  10.210; 290.415;   0.269; 305.051;  13.296;  13.544; -13.516; -13.963;   5.005;   4.736;   4.230;   1.809;  -1.106;;;;;;;;;;;;;;;;;;
2006-10-28T01:33:29.577Z;0;8.1750e+00;0;     0.126;  5744.984;  26309.941; 0;  25675.049;  26309.941;  28707.727;  22962.744; 31;   4.732;  10.270; 290.474;   0.330; 305.110;  13.357;  13.545; -13.496; -13.943;   5.004;   4.736;   4.230;   1.811;  -1.104;;;;;;;;;;;;;;;;;;
2006-10-28T01:33:37.577Z;0;8.2390e+00;0;     0.125;  5744.984;  26407.732; 0;  25775.250;  26407.732;  28807.309;  23062.324; 31;   4.732;  10.331; 290.533;   0.391; 305.169;  13.418;  13.546; -13.477; -13.924;   5.004;   4.736;   4.230;   1.812;  -1.103;;;;;;;;;;;;;;;;;;
2006-10-28T01:33:53.577Z;0;8.0130e+00;0;     0.111;  5744.984;  26061.570; 0;  25420.477;  26061.570;  28454.748;  22709.764; 31;   4.733;  10.452; 290.652;   0.513; 305.286;  13.541;  13.548; -13.438; -13.885;   5.003;   4.737;   4.230;   1.815;  -1.100;;;;;;;;;;;;;;;;;;
2006-10-28T01:34:01.577Z;0;7.9070e+00;0;     0.104;  5727.344;  25893.256; 0;  25251.896;  25893.256;  28277.426;  22550.080; 31;   4.733;  10.512; 290.711;   0.574; 305.345;  13.602;  13.549; -13.418; -13.865;   5.002;   4.737;   4.230;   1.816;  -1.098;;;;;;;;;;;;;;;;;;
2006-10-28T01:34:09.577Z;0;8.1500e+00;0;     0.114;  5727.344;  26267.598; 0;  25635.604;  26267.598;  28658.727;  22931.383; 31;   4.733;  10.572; 290.770;   0.635; 305.404;  13.663;  13.550; -13.399; -13.846;   5.002;   4.737;   4.231;   1.817;  -1.097;;;;;;;;;;;;;;;;;;
2006-10-28T01:34:17.577Z;0;8.0490e+00;0;     0.107;  5727.344;  26113.164; 0;  25477.340;  26113.164;  28501.447;  22774.102; 31;   4.733;  10.633; 290.830;   0.696; 305.463;  13.724;  13.551; -13.379; -13.826;   5.001;   4.737;   4.231;   1.819;  -1.095;;;;;;;;;;;;;;;;;;
2006-10-28T01:34:25.577Z;0;7.9340e+00;0;     0.103;  5727.344;  25934.299; 0;  25293.979;  25934.299;  28319.242;  22591.896; 31;   4.733;  10.693; 290.889;   0.757; 305.522;  13.786;  13.552; -13.360; -13.807;   5.000;   4.738;   4.231;   1.820;  -1.094;;;;;;;;;;;;;;;;;;
2006-10-28T01:34:41.577Z;0;8.0190e+00;0;     0.107;  5727.344;  26066.402; 0;  25429.410;  26066.402;  28453.816;  22726.473; 31;   4.734;  10.814; 291.008;   0.879; 305.639;  13.908;  13.553; -13.321; -13.768;   4.999;   4.738;   4.231;   1.822;  -1.091;;;;;;;;;;;;;;;;;;
2006-10-28T01:34:49.577Z;0;7.9560e+00;0;     0.110;  5727.344;  25968.830; 0;  25329.383;  25968.830;  28354.422;  22627.076; 31;   4.734;  10.875; 291.067;   0.940; 305.698;  13.970;  13.554; -13.301; -13.748;   4.999;   4.738;   4.231;   1.824;  -1.089;;;;;;;;;;;;;;;;;;
2006-10-28T01:34:57.577Z;0;7.9260e+00;0;     0.100;  5727.344;  25922.344; 0;  25281.721;  25922.344;  28307.061;  22579.717; 31;   4.734;  10.935; 291.126;   1.001; 305.757;  14.031;  13.555; -13.282; -13.729;   4.998;   4.738;   4.231;   1.825;  -1.088;;;;;;;;;;;;;;;;;;
2006-10-28T01:35:05.577Z;0;8.0830e+00;0;     0.112;  5709.732;  26161.402; 0;  25530.725;  26161.402;  28544.713;  22834.980; 31;   4.735;  10.996; 291.186;   1.062; 305.816;  14.092;  13.556; -13.262; -13.710;   4.998;   4.739;   4.231;   1.826;  -1.086;;;;;;;;;;;;;;;;;;
2006-10-28T01:35:13.577Z;0;7.9720e+00;0;     0.111;  5709.732;  25990.018; 0;  25355.078;  25990.018;  28370.160;  22660.428; 31;   4.735;  11.056; 291.245;   1.123; 305.874;  14.154;  13.557; -13.243; -13.690;   4.997;   4.739;   4.231;   1.828;  -1.084;;;;;;;;;;;;;;;;;;
2006-10-28T01:35:29.577Z;0;7.9250e+00;0;     0.109;  5709.732;  25916.887; 0;  25280.109;  25916.887;  28295.664;  22585.932; 31;   4.735;  11.177; 291.364;   1.245; 305.992;  14.277;  13.559; -13.204; -13.651;   4.996;   4.739;   4.231;   1.830;  -1.081;;;;;;;;;;;;;;;;;;
2006-10-28T01:35:37.577Z;0;8.0600e+00;0;     0.125;  5709.732;  26125.441; 0;  25493.875;  26125.441;  28508.090;  22798.357; 31;   4.736;  11.238; 291.423;   1.306; 306.050;  14.338;  13.560; -13.184; -13.632;   4.995;   4.740;   4.231;   1.832;  -1.080;;;;;;;;;;;;;;;;;;
2006-10-28T01:35:45.577Z;0;8.1450e+00;0;     0.120;  5709.732;  26256.303; 0;  25627.961;  26256.303;  28641.348;  22931.615; 31;   4.736;  11.298; 291.482;   1.367; 306.109;  14.400;  13.561; -13.165; -13.612;   4.995;   4.740;   4.231;   1.833;  -1.078;;;;;;;;;;;;;;;;;;
2006-10-28T01:35:53.577Z;0;8.0580e+00;0;     0.128;  5709.732;  26123.451; 0;  25491.836;  26123.451;  28506.062;  22796.332; 31;   4.736;  11.358; 291.542;   1.428; 306.168;  14.461;  13.562; -13.145; -13.593;   4.994;   4.740;   4.232;   1.834;  -1.077;;;;;;;;;;;;;;;;;;
2006-10-28T01:36:01.576Z;0;8.0860e+00;0;     0.120;  5692.400;  26162.697; 0;  25535.922;  26162.697;  28540.250;  22847.850; 31;   4.736;  11.419; 291.601;   1.489; 306.226;  14.523;  13.563; -13.126; -13.573;   4.994;   4.740;   4.232;   1.836;  -1.075;;;;;;;;;;;;;;;;;;
2006-10-28T01:36:17.576Z;0;8.2460e+00;0;     0.126;  5692.400;  26407.604; 0;  25786.781;  26407.604;  28789.580;  23097.180; 31;   4.737;  11.540; 291.720;   1.611; 306.344;  14.646;  13.565; -13.087; -13.534;   4.993;   4.741;   4.232;   1.838;  -1.072;;;;;;;;;;;;;;;;;;
2006-10-28T01:36:25.576Z;0;8.0830e+00;0;     0.118;  5692.400;  26156.924; 0;  25530.006;  26156.924;  28534.371;  22841.971; 31;   4.737;  11.600; 291.779;   1.672; 306.402;  14.708;  13.566; -13.068; -13.515;   4.992;   4.741;   4.232;   1.840;  -1.071;;;;;;;;;;;;;;;;;;
2006-10-28T01:36:33.576Z;0;8.1660e+00;0;     0.124;  5692.400;  26285.090; 0;  25661.305;  26285.090;  28664.863;  22972.463; 31;   4.737;  11.661; 291.839;   1.733; 306.461;  14.769;  13.567; -13.048; -13.496;   4.992;   4.741;   4.232;   1.841;  -1.069;;;;;;;;;;;;;;;;;;
2006-10-28T01:36:41.576Z;0;8.1140e+00;0;     0.116;  5692.400;  26204.713; 0;  25578.967;  26204.713;  28583.029;  22890.629; 31;   4.737;  11.721; 291.898;   1.794; 306.519;  14.831;  13.568; -13.029; -13.476;   4.991;   4.741;   4.232;   1.842;  -1.068;;;;;;;;;;;;;;;;;;
2006-10-28T01:36:49.576Z;0;8.1330e+00;0;     0.123;  5692.400;  26235.289; 0;  25610.291;  26235.289;  28614.162;  22921.762; 31;   4.738;  11.782; 291.957;   1.855; 306.578;  14.893;  13.569; -13.009; -13.457;   4.990;   4.742;   4.232;   1.843;  -1.066;;;;;;;;;;;;;;;;;;
2006-10-28T01:37:05.576Z;0;8.2370e+00;0;     0.121;  5674.732;  26389.758; 0;  25772.402;  26389.758;  28765.486;  23090.754; 31;   4.738;  11.903; 292.076;   1.977; 306.695;  15.016;  13.571; -12.970; -13.418;   4.989;   4.742;   4.232;   1.846;  -1.063;;;;;;;;;;;;;;;;;;
2006-10-28T01:37:13.576Z;0;8.0670e+00;0;     0.123;  5674.732;  26129.275; 0;  25505.615;  26129.275;  28500.318;  22825.586; 31;   4.738;  11.964; 292.136;   2.038; 306.753;  15.078;  13.572; -12.951; -13.398;   4.989;   4.742;   4.232;   1.847;  -1.062;;;;;;;;;;;;;;;;;;
2006-10-28T01:37:21.576Z;0;8.2770e+00;0;     0.134;  5674.732;  26451.174; 0;  25835.287;  26451.174;  28827.992;  23153.260; 31;   4.739;  12.024; 292.195;   2.099; 306.812;  15.140;  13.573; -12.931; -13.379;   4.988;   4.742;   4.232;   1.849;  -1.060;;;;;;;;;;;;;;;;;;
2006-10-28T01:37:29.576Z;0;8.2610e+00;0;     0.097;  5674.732;  26426.451; 0;  25809.973;  26426.451;  28802.832;  23128.100; 31;   4.739;  12.085; 292.254;   2.160; 306.870;  15.201;  13.574; -12.912; -13.359;   4.988;   4.743;   4.232;   1.850;  -1.059;;;;;;;;;;;;;;;;;;
2006-10-28T01:37:53.576Z;0;8.1900e+00;0;     0.106;  5674.732;  26317.592; 0;  25698.502;  26317.592;  28692.031;  23017.299; 31;   4.739;  12.266; 292.433;   2.343; 307.046;  15.387;  13.577; -12.854; -13.301;   4.986;   4.743;   4.233;   1.854;  -1.054;;;;;;;;;;;;;;;;;;
2006-10-28T01:38:01.576Z;0;8.1390e+00;0;     0.136;  5657.372;  26235.734; 0;  25618.508;  26235.734;  28602.885;  22945.514; 31;   4.740;  12.327; 292.492;   2.404; 307.104;  15.449;  13.578; -12.834; -13.282;   4.986;   4.744;   4.233;   1.855;  -1.053;;;;;;;;;;;;;;;;;;
2006-10-28T01:38:09.576Z;0;7.9550e+00;0;     0.178;  5657.372;  25951.438; 0;  25327.283;  25951.438;  28313.441;  22656.068; 31;   4.740;  12.387; 292.551;   2.465; 307.163;  15.511;  13.579; -12.815; -13.262;   4.985;   4.744;   4.233;   1.857;  -1.051;;;;;;;;;;;;;;;;;;
2006-10-28T01:38:17.576Z;0;7.9580e+00;0;     0.153;  5657.372;  25955.916; 0;  25331.871;  25955.916;  28318.002;  22660.629; 31;   4.740;  12.448; 292.611;   2.526; 307.221;  15.573;  13.580; -12.795; -13.243;   4.985;   4.744;   4.233;   1.858;  -1.050;;;;;;;;;;;;;;;;;;
2006-10-28T01:38:25.576Z;0;8.2040e+00;0;     0.156;  5657.372;  26335.521; 0;  25720.689;  26335.521;  28704.453;  23047.080; 31;   4.740;  12.508; 292.670;   2.587; 307.279;  15.635;  13.581; -12.776; -13.223;   4.984;   4.744;   4.233;   1.859;  -1.048;;;;;;;;;;;;;;;;;;
2006-10-28T01:38:41.575Z;0;8.2240e+00;0;     0.143;  5657.372;  26366.752; 0;  25752.664;  26366.752;  28736.236;  23078.865; 31;   4.741;  12.629; 292.789;   2.709; 307.396;  15.759;  13.583; -12.737; -13.184;   4.983;   4.745;   4.233;   1.862;  -1.045;;;;;;;;;;;;;;;;;;
2006-10-28T01:38:49.575Z;0;8.1990e+00;0;     0.142;  5657.372;  26328.287; 0;  25713.281;  26328.287;  28697.090;  23039.717; 31;   4.741;  12.690; 292.849;   2.770; 307.454;  15.821;  13.584; -12.717; -13.165;   4.983;   4.745;   4.233;   1.863;  -1.044;;;;;;;;;;;;;;;;;;
2006-10-28T01:38:57.575Z;0;8.5220e+00;0;     0.165;  5657.372;  26817.770; 0;  26214.250;  26817.770;  29195.111;  23537.738; 31;   4.741;  12.751; 292.908;   2.831; 307.513;  15.883;  13.585; -12.698; -13.146;   4.982;   4.745;   4.233;   1.864;  -1.042;;;;;;;;;;;;;;;;;;
2006-10-28T01:39:05.575Z;0;8.2690e+00;0;     0.137;  5639.900;  26430.939; 0;  25822.201;  26430.939;  28795.674;  23155.773; 31;   4.742;  12.811; 292.967;   2.892; 307.571;  15.945;  13.586; -12.678; -13.126;   4.982;   4.745;   4.233;   1.866;  -1.041;;;;;;;;;;;;;;;;;;
2006-10-28T01:39:13.575Z;0;8.6320e+00;0;     0.174;  5639.900;  26980.223; 0;  26384.160;  26980.223;  29354.381;  23714.482; 31;   4.742;  12.872; 293.027;   2.954; 307.629;  16.007;  13.586; -12.659; -13.107;   4.981;   4.746;   4.233;   1.867;  -1.039;;;;;;;;;;;;;;;;;;
2006-10-28T01:39:29.575Z;0;8.4630e+00;0;     0.144;  5639.900;  26725.365; 0;  26123.488;  26725.365;  29095.201;  23455.301; 31;   4.742;  12.993; 293.146;   3.076; 307.746;  16.131;  13.588; -12.620; -13.068;   4.980;   4.746;   4.233;   1.870;  -1.036;;;;;;;;;;;;;;;;;;
2006-10-28T01:39:37.575Z;0;8.5080e+00;0;     0.163;  5639.900;  26794.111; 0;  26193.814;  26794.111;  29165.121;  23525.221; 31;   4.743;  13.054; 293.205;   3.137; 307.804;  16.193;  13.589; -12.601; -13.048;   4.980;   4.746;   4.233;   1.871;  -1.034;;;;;;;;;;;;;;;;;;
2006-10-28T01:39:45.575Z;0;8.7520e+00;0;     0.169;  5639.900;  27158.629; 0;  26566.570;  27158.629;  29535.766;  23895.865; 31;   4.743;  13.114; 293.265;   3.198; 307.862;  16.255;  13.590; -12.581; -13.029;   4.979;   4.746;   4.234;   1.872;  -1.033;;;;;;;;;;;;;;;;;;
2006-10-28T01:42:17.574Z;0;9.4210e+00;0;     0.050;  5587.820;  28123.033; 0;  27562.316;  28123.033;  30497.469;  24909.648; 31;   4.747;  14.266; 294.395;   4.360; 308.995;  17.426;  13.609; -12.212; -12.660;   4.970;   4.751;   4.235;   1.897;  -1.004;;;;;;;;;;;;;;;;;;
2006-10-28T01:42:41.574Z;0;9.3750e+00;0;     0.051;  5587.820;  28058.082; 0;  27496.041;  28058.082;  30431.533;  24843.713; 31;   4.748;  14.448; 294.574;   4.543; 309.174;  17.611;  13.612; -12.154; -12.602;   4.968;   4.752;   4.235;   1.901;  -1.000;;;;;;;;;;;;;;;;;;
2006-10-28T01:42:49.574Z;0;9.3440e+00;0;     0.051;  5587.820;  28012.348; 0;  27449.369;  28012.348;  30385.102;  24797.281; 31;   4.748;  14.509; 294.634;   4.604; 309.234;  17.673;  13.612; -12.134; -12.582;   4.968;   4.752;   4.235;   1.902;  -0.998;;;;;;;;;;;;;;;;;;
2006-10-28T01:42:57.574Z;0;9.3290e+00;0;     0.051;  5587.820;  27991.371; 0;  27427.963;  27991.371;  30363.805;  24775.984; 31;   4.749;  14.569; 294.693;   4.666; 309.294;  17.734;  13.613; -12.115; -12.563;   4.968;   4.752;   4.235;   1.904;  -0.996;;;;;;;;;;;;;;;;;;
2006-10-28T01:43:05.574Z;0;9.2770e+00;0;     0.053;  5570.572;  27912.998; 0;  27351.494;  27912.998;  30278.230;  24707.658; 31;   4.749;  14.630; 294.753;   4.727; 309.354;  17.796;  13.614; -12.096; -12.544;   4.967;   4.752;   4.235;   1.905;  -0.995;;;;;;;;;;;;;;;;;;
2006-10-28T01:43:13.574Z;0;9.2600e+00;0;     0.052;  5570.572;  27887.902; 0;  27325.883;  27887.902;  30252.752;  24682.180; 31;   4.749;  14.691; 294.812;   4.788; 309.414;  17.858;  13.615; -12.076; -12.524;   4.967;   4.753;   4.235;   1.906;  -0.993;;;;;;;;;;;;;;;;;;
2006-10-28T01:43:29.574Z;0;9.2640e+00;0;     0.052;  5570.572;  27893.826; 0;  27331.928;  27893.826;  30258.766;  24688.193; 31;   4.750;  14.812; 294.931;   4.910; 309.535;  17.981;  13.617; -12.037; -12.485;   4.966;   4.753;   4.235;   1.909;  -0.990;;;;;;;;;;;;;;;;;;
2006-10-28T01:43:37.574Z;0;9.2810e+00;0;     0.052;  5570.572;  27918.607; 0;  27357.219;  27918.607;  30283.926;  24713.354; 31;   4.750;  14.873; 294.991;   4.972; 309.595;  18.042;  13.618; -12.018; -12.466;   4.965;   4.753;   4.235;   1.910;  -0.989;;;;;;;;;;;;;;;;;;
2006-10-28T01:43:45.574Z;0;9.2520e+00;0;     0.053;  5570.572;  27876.602; 0;  27314.348;  27876.602;  30241.277;  24670.705; 31;   4.750;  14.934; 295.050;   5.033; 309.655;  18.104;  13.619; -11.999; -12.447;   4.965;   4.753;   4.235;   1.911;  -0.987;;;;;;;;;;;;;;;;;;
2006-10-28T01:43:53.573Z;0;9.2400e+00;0;     0.053;  5570.572;  27860.135; 0;  27297.543;  27860.135;  30224.559;  24653.986; 31;   4.750;  14.994; 295.110;   5.094; 309.715;  18.166;  13.620; -11.979; -12.427;   4.964;   4.754;   4.235;   1.913;  -0.986;;;;;;;;;;;;;;;;;;
2006-10-28T01:44:01.573Z;0;9.2110e+00;0;     0.053;  5553.688;  27814.764; 0;  27254.682;  27814.764;  30172.619;  24618.932; 31;   4.751;  15.055; 295.170;   5.155; 309.775;  18.227;  13.621; -11.960; -12.408;   4.964;   4.754;   4.235;   1.914;  -0.984;;;;;;;;;;;;;;;;;;
2006-10-28T01:44:17.573Z;0;9.2210e+00;0;     0.053;  5553.688;  27829.201; 0;  27269.414;  27829.201;  30187.277;  24633.590; 31;   4.751;  15.176; 295.289;   5.278; 309.896;  18.351;  13.623; -11.921; -12.369;   4.963;   4.754;   4.235;   1.917;  -0.981;;;;;;;;;;;;;;;;;;
2006-10-28T01:44:25.573Z;0;9.2360e+00;0;     0.052;  5553.688;  27850.961; 0;  27291.621;  27850.961;  30209.369;  24655.682; 31;   4.751;  15.237; 295.348;   5.339; 309.956;  18.412;  13.624; -11.902; -12.350;   4.963;   4.755;   4.235;   1.918;  -0.980;;;;;;;;;;;;;;;;;;
2006-10-28T01:44:33.573Z;0;9.2530e+00;0;     0.052;  5553.688;  27875.480; 0;  27316.643;  27875.480;  30234.262;  24680.574; 31;   4.752;  15.298; 295.408;   5.400; 310.016;  18.474;  13.625; -11.882; -12.330;   4.962;   4.755;   4.236;   1.919;  -0.978;;;;;;;;;;;;;;;;;;
2006-10-28T01:44:41.573Z;0;9.2550e+00;0;     0.053;  5553.688;  27878.371; 0;  27319.592;  27878.371;  30237.197;  24683.510; 31;   4.752;  15.359; 295.468;   5.461; 310.076;  18.536;  13.626; -11.863; -12.311;   4.962;   4.755;   4.236;   1.920;  -0.977;;;;;;;;;;;;;;;;;;